Jackson, MI

7:21 PM EDT on August 25, 2019 (GMT -0400)
Jackson County-Reynolds

Weather History for KJXN - July, 2019

Change the Weather History Date:

Thursday, July 18, 2019

  Actual Average Record
Temperature  
Mean Temperature 78 °F 71 °F  
Max Temperature 85 °F 82 °F 93 °F (1966)
Min Temperature 71 °F 60 °F 47 °F (1971)
Degree Days  
Heating Degree Days 0 0  
Month to date heating degree days 0 1  
Since 1 June heating degree days 58 56  
Since 1 July heating degree days 0 1  
Cooling Degree Days 13 7  
Month to date cooling degree days 185 124  
Year to date cooling degree days 288 287  
Since 1 June cooling degree days 278 250  
Growing Degree Days 28 (Base 50)    
Moisture  
Dew Point 71 °F    
Average Humidity 76    
Maximum Humidity 87    
Minimum Humidity 65    
Precipitation  
Precipitation 0.02 in 0.11 in 0.90 in (1970)
Month to date precipitation 1.61 2.00  
Year to date precipitation 18.33 15.87  
Sea Level Pressure  
Sea Level Pressure 29.88 in    
Wind  
Wind Speed 8 mph (SSE)    
Max Wind Speed 18 mph    
Max Gust Speed 32 mph    
Visibility 10 miles    
Events      
T = Trace of Precipitation, MM = Missing Value Source: NWS Daily Summary

Daily Weather History Graph

Daily Weather History Graph

Search for Another Location

Airport or City:

Astronomy

Jul. 18, 2019 Rise Set
Actual Time 6:17 AM EDT 9:10 PM EDT
Civil Twilight 5:43 AM EDT 9:43 PM EDT
Nautical Twilight 5:01 AM EDT 10:25 PM EDT
Astronomical Twilight 4:12 AM EDT 11:14 PM EDT
Moon 10:34 PM EDT (7/18) 7:46 AM EDT (7/18)
Length of Visible Light 15h 59m
Length of Day
14h 53m
Full, 97% of the Moon is Illuminated
Jul 18
Full
Jul 24
Last Quarter
Jul 31
New
Aug 7
First Quarter
Aug 15
Full

Hourly Weather History & Observations

Time (EDT) Temp. Heat Index Dew Point Humidity Pressure Visibility Wind Dir Wind Speed Gust Speed Precip Events Conditions
12:56 AM 75.9 °F - 71.1 °F 85% 29.93 in 10.0 mi East 5.8 mph - N/A   Clear
1:56 AM 75.0 °F - 71.1 °F 87% 29.94 in 10.0 mi East 5.8 mph - N/A   Clear
2:56 AM 73.9 °F - 69.1 °F 85% 29.93 in 10.0 mi ESE 6.9 mph - N/A   Clear
3:56 AM 73.0 °F - 68.0 °F 84% 29.91 in 10.0 mi ESE 6.9 mph - N/A   Clear
4:56 AM 72.0 °F - 66.9 °F 84% 29.91 in 10.0 mi ESE 3.5 mph - N/A   Clear
5:56 AM 71.1 °F - 66.9 °F 87% 29.92 in 10.0 mi Calm Calm - N/A   Clear
6:56 AM 71.1 °F - 66.9 °F 87% 29.93 in 10.0 mi SE 3.5 mph - N/A   Clear
7:56 AM 73.9 °F - 68.0 °F 82% 29.93 in 10.0 mi SE 9.2 mph - N/A   Clear
8:56 AM 78.1 °F - 71.1 °F 79% 29.92 in 10.0 mi SSE 10.4 mph - N/A   Clear
9:56 AM 81.0 °F 86.2 °F 73.9 °F 79% 29.92 in 10.0 mi South 10.4 mph - N/A   Clear
10:56 AM 82.0 °F 87.4 °F 73.0 °F 74% 29.91 in 10.0 mi South 9.2 mph - N/A   Clear
11:56 AM 84.0 °F 91.2 °F 73.9 °F 72% 29.94 in 10.0 mi SSW 10.4 mph - N/A   Mostly Cloudy
12:56 PM 84.0 °F 91.9 °F 75.0 °F 74% 29.94 in 10.0 mi WSW 12.7 mph - N/A   Scattered Clouds
1:56 PM 81.0 °F 85.2 °F 72.0 °F 74% 29.95 in 10.0 mi WSW 15.0 mph 25.3 mph N/A   Mostly Cloudy
2:56 PM 75.0 °F - 72.0 °F 90% 29.91 in 10.0 mi SSW 5.8 mph - 0.02 in   Mostly Cloudy
3:56 PM 79.0 °F - 73.0 °F 82% 29.77 in 10.0 mi SSE 10.4 mph 19.6 mph N/A   Clear
4:56 PM 82.0 °F 87.4 °F 73.0 °F 74% 29.80 in 10.0 mi SSE 10.4 mph - N/A   Clear
5:56 PM 84.0 °F 89.6 °F 72.0 °F 67% 29.79 in 10.0 mi South 12.7 mph - N/A   Clear
6:56 PM 84.0 °F 89.6 °F 72.0 °F 67% 29.80 in 10.0 mi South 9.2 mph - N/A   Clear
7:56 PM 82.9 °F 88.0 °F 72.0 °F 69% 29.81 in 10.0 mi South 4.6 mph - N/A   Clear
8:56 PM 80.1 °F 84.2 °F 73.0 °F 79% 29.83 in 10.0 mi South 3.5 mph - N/A   Clear
9:56 PM 79.0 °F - 73.0 °F 82% 29.84 in 10.0 mi SSE 3.5 mph - N/A   Overcast
10:10 PM 79.0 °F - 73.0 °F 82% 29.87 in 10.0 mi SSE 4.6 mph - N/A   Overcast
10:56 PM 79.0 °F - 73.0 °F 82% 29.85 in 10.0 mi SSE 5.8 mph - N/A   Mostly Cloudy
11:56 PM 78.1 °F - 73.9 °F 87% 29.84 in 10.0 mi SSE 5.8 mph - N/A   Mostly Cloudy